カタログに戻る

ONEWEB-0533

運用中通信PO
NORAD 55141·PAYLOAD·🇬🇧 United Kingdom

打ち上げ Jan 10, 2023 から Cape Canaveral Space Force Station

Loading…

次のパス (今後24時間)

TLE

最新Source: CelesTrak SupGP

元期: Sep 14, 2026, 23:12 UTC

1 55141C 23004B   26257.96680973  .00000835  00000+0  23226-2 0  2574
2 55141  87.8989 332.8459 0002083 105.2078 287.7900 13.12443840    11

AllMySatでONEWEB-0533をリアルタイム追跡

Download on the App Store